カタログに戻る

STARLINK-33719

運用中通信VLEO
NORAD 63578·PAYLOAD·🇺🇸 United States

打ち上げ Apr 14, 2025 から Cape Canaveral Space Force Station

Loading…

次のパス (今後24時間)

TLE

最新Source: CelesTrak SupGP

元期: Sep 14, 2026, 21:15 UTC

1 63578C 25076K   26257.88590278 -.00021235  00000+0 -76907-3 0  2571
2 63578  43.0036 333.1467 0001542 270.6631 185.8975 15.27590806    18

AllMySatでSTARLINK-33719をリアルタイム追跡

Download on the App Store